User: anonymous   Login
Location: Noordwijk
(52.2400°N, 4.4500°E)
Time: 17:23:04
(UTC+00:00)
Language:

KKS-1 - Orbit

View from above orbital plane
View from above orbital plane
View from above satellite
View from above satellite

Ground track
Ground track

The orbit data is extracted from the following two-line orbital elements,

1 33499U 09002H   22333.77444252  .00000784  00000-0  12070-3 0  9999
2 33499  98.1942 218.3592 0009647 139.4010 220.7920 14.76294998745060
Epoch (UTC): 29 November 2022 18:35:11
Eccentricity: 0.0009647
inclination: 98.1942°
perigee height: 634 km
apogee height: 648 km
right ascension of ascending node: 218.3592°
argument of perigee: 139.4010°
revolutions per day: 14.76294998
mean anomaly at epoch: 220.7920°
orbit number at epoch: 74506

The dashed part of the orbit path shows where the satellite is in the earth's shadow,  

DLR